[[{"header":{"parameterUnit":"m.s-1","parameterCategory":1,"la1":30.2991,"la2":30.254,"lo1":-89.0895,"lo2":-89.0444,"dy":0.0017,"dx":0.0017,"nx":28,"ny":28,"refTime":"2024-11-23T03:00:00:Z","depth":0,"parameterNumber":2,"parameterNumberName":"U-component_of_WINDS"},"data":[0,0,0,0,0,0,0,0,0,0,0,0,0,0,0,0,0,0,0,0,0,0,0,0,0,0,0,0,0,0,0,0,0,0,0,0,0,0,0,0,0,0,0,0,0,0,0,0,0,0,0,0,0,0,0,0,0,0,-0.6634,-0.6633,0,-0.6514,-0.6513,-0.6511,-0.6427,-0.6427,-0.6426,-0.6426,-0.6301,-0.6299,-0.6296,0,0,0,0,0,0,0,0,0,0,0,0,0,-0.679,-0.6787,-0.6634,-0.6633,-0.6631,-0.6514,-0.6513,-0.6511,-0.6428,-0.6427,-0.6426,-0.6425,-0.6302,-0.6299,-0.6296,0,0,0,0,0,0,0,0,0,0,0,0,0,-0.6701,-0.6787,-0.6634,-0.6575,-0.6569,-0.6515,-0.6513,-0.6511,-0.6428,-0.6427,-0.6426,-0.6425,-0.6303,-0.6299,-0.6295,-0.629,0,0,-0.6283,-0.6281,0,0,0,0,0,0,0,0,-0.6706,-0.6696,-0.6586,-0.6579,-0.6572,-0.6485,-0.6522,-0.6437,-0.6428,-0.6481,-0.6426,-0.6424,-0.6363,-0.6354,-0.6334,-0.6284,-0.6279,-0.6283,-0.628,-0.6278,-0.6277,0,0,0,0,0,0,0,-0.6713,-0.67,-0.6587,-0.6584,-0.6576,-0.6555,-0.6541,-0.6505,-0.6429,-0.6477,-0.647,-0.6457,-0.6359,-0.6338,-0.633,-0.6277,-0.6283,-0.6279,-0.6277,-0.6275,-0.6216,-0.6217,0,0,0,0,0,0,-0.6728,-0.6706,-0.659,-0.6583,-0.6638,-0.6553,-0.6537,-0.6514,-0.6429,-0.6415,-0.6458,-0.6454,-0.6345,-0.6335,-0.6325,-0.6313,-0.6278,-0.6275,-0.6272,-0.6215,-0.6216,-0.6217,0,0,0,0,0,0,-0.6732,-0.6719,-0.6595,-0.6643,-0.6625,-0.6551,-0.6525,-0.6512,-0.649,-0.6415,-0.6401,-0.645,-0.6344,-0.6331,-0.6299,-0.6307,-0.6273,-0.6269,-0.6214,-0.6216,-0.6217,-0.6289,0,0,0,0,0,0,-0.6737,-0.6721,-0.6718,-0.6643,-0.6623,-0.6572,-0.6526,-0.651,-0.6484,-0.6477,-0.6404,-0.6391,-0.6342,-0.6306,-0.6295,-0.6301,-0.6266,-0.6213,-0.6215,-0.6216,-0.6285,-0.6292,-0.6298,0,0,0,0,0,-0.6743,-0.6743,-0.6718,-0.6705,-0.6618,-0.6572,-0.6561,-0.6505,-0.6485,-0.6481,-0.6433,-0.6394,-0.6309,-0.6303,-0.6291,-0.6296,-0.6212,-0.6214,-0.6216,-0.6282,-0.6291,-0.6298,0,0,0,0,0,0,-0.6819,-0.6732,-0.6704,-0.668,-0.6634,-0.6558,-0.6552,-0.6516,-0.6475,-0.647,-0.6401,-0.6386,-0.6361,-0.6325,-0.6321,-0.6286,-0.6256,-0.6255,-0.631,-0.6318,-0.6324,-0.6333,-0.6262,0,0,0,0,0,-0.6834,-0.6804,-0.6729,-0.6715,-0.6694,-0.6627,-0.6605,-0.6566,-0.6516,-0.6496,-0.6445,-0.6398,-0.636,-0.6337,-0.6298,-0.628,-0.6263,-0.6277,-0.6284,-0.6289,-0.629,-0.6277,-0.6282,-0.6224,-0.6224,-0.6224,0,0,-0.6863,-0.6811,-0.6796,-0.6729,-0.6689,-0.666,-0.6612,-0.6582,-0.656,-0.6491,-0.6458,-0.642,-0.6362,-0.6337,-0.6323,-0.6306,-0.6302,-0.6292,-0.6297,-0.6294,-0.628,-0.6285,-0.629,-0.6225,-0.6225,-0.6225,0,0,-0.69,-0.6859,-0.6842,-0.6804,-0.6744,-0.67,-0.6696,-0.6626,-0.6598,-0.6564,-0.6512,-0.6484,-0.6421,-0.6382,-0.6354,-0.6378,-0.634,-0.6367,-0.6401,-0.6389,-0.6394,-0.6398,-0.6406,-0.641,-0.6368,-0.6368,-0.6368,0,-0.6944,-0.6897,-0.6839,-0.6812,-0.6784,-0.6722,-0.6705,-0.667,-0.6601,-0.6583,-0.6565,-0.6484,-0.6441,-0.6406,-0.6412,-0.6392,-0.6385,-0.6375,-0.6398,-0.6401,-0.6404,-0.6411,-0.6414,-0.6371,-0.6371,-0.6371,-0.637,0,-0.6954,-0.6922,-0.6916,-0.6852,-0.6823,-0.6802,-0.6739,-0.6717,-0.6681,-0.6638,-0.6604,-0.6551,-0.65,-0.6489,-0.6453,-0.6449,-0.644,-0.6411,-0.6379,-0.6414,-0.642,-0.6422,-0.6377,-0.6375,-0.6374,-0.6373,0,0,-0.7036,-0.6939,-0.6938,-0.6908,-0.6838,-0.6812,-0.6788,-0.6739,-0.6722,-0.6676,-0.6654,-0.6602,-0.6575,-0.6544,-0.6503,-0.6493,-0.6515,-0.6465,-0.6462,-0.6476,-0.6506,-0.6528,-0.6532,-0.6489,-0.649,-0.649,-0.6511,0,-0.7062,-0.7016,-0.6962,-0.6934,-0.6904,-0.6845,-0.6824,-0.6778,-0.6739,-0.6707,-0.6663,-0.6627,-0.6594,-0.6575,-0.6563,-0.6515,-0.652,-0.6513,-0.6467,-0.6466,-0.6483,-0.6535,-0.6558,-0.658,-0.6513,-0.6513,-0.6513,0,-0.7087,-0.7045,-0.7014,-0.6947,-0.6932,-0.6914,-0.6865,-0.6836,-0.6784,-0.6755,-0.6721,-0.6677,-0.6648,-0.6621,-0.658,-0.6576,-0.6554,-0.6528,-0.6528,-0.6521,-0.6492,-0.6529,-0.6586,-0.659,-0.6516,-0.6516,-0.6516,0,-0.7149,-0.7085,-0.7058,-0.7034,-0.6956,-0.6944,-0.6911,-0.6857,-0.6831,-0.6788,-0.6771,-0.6725,-0.67,-0.6665,-0.6611,-0.6596,-0.6575,-0.6543,-0.6551,-0.6552,-0.6548,-0.6549,-0.6602,-0.6536,-0.6536,-0.6536,-0.6536,0,-0.7184,-0.7167,-0.7085,-0.7069,-0.7048,-0.6987,-0.6968,-0.6929,-0.6883,-0.6857,-0.6803,-0.678,-0.671,-0.6678,-0.6635,-0.6608,-0.6597,-0.6573,-0.6561,-0.6577,-0.658,-0.6562,-0.6558,-0.6536,-0.6536,-0.6536,-0.6536,0,-0.725,-0.7194,-0.7161,-0.709,-0.7071,-0.7059,-0.6998,-0.6979,-0.6937,-0.6905,-0.6894,-0.6827,-0.6788,-0.673,-0.6673,-0.6644,-0.6623,-0.6604,-0.6641,-0.6634,-0.6644,-0.6644,-0.6686,-0.6689,-0.6622,-0.6623,-0.6623,0,-0.7276,-0.7262,-0.7189,-0.7168,-0.7137,-0.7104,-0.7077,-0.7017,-0.6991,-0.6931,-0.6919,-0.6876,-0.6838,-0.6778,-0.6723,-0.6679,-0.6659,-0.6677,-0.6652,-0.6669,-0.6659,-0.666,-0.6658,-0.6683,-0.6684,-0.6685,-0.6686,0,-0.7327,-0.73,-0.7264,-0.7219,-0.7189,-0.715,-0.7109,-0.7095,-0.7025,-0.6999,-0.6958,-0.6929,-0.6871,-0.6828,-0.6777,-0.6742,-0.6702,-0.6694,-0.6694,-0.6709,-0.6731,-0.6719,-0.6656,-0.6693,-0.6693,-0.6692,-0.6692,-0.6691,-0.7373,-0.7358,-0.7304,-0.7266,-0.7228,-0.7191,-0.717,-0.7125,-0.709,-0.7039,-0.7005,-0.6966,-0.6914,-0.6841,-0.6808,-0.6776,-0.676,-0.6759,-0.6758,-0.6759,-0.6764,-0.6737,-0.6767,-0.6767,-0.6766,-0.6766,-0.6766,0,-0.7421,-0.7384,-0.7349,-0.7293,-0.7263,-0.7229,-0.7182,-0.7159,-0.7125,-0.708,-0.7044,-0.6997,-0.6956,-0.6899,-0.6853,-0.6839,-0.682,-0.6829,-0.6829,-0.6821,-0.6782,-0.6787,-0.6845,-0.6845,-0.6845,-0.6845,-0.6845,-0.6845,-0.7443,-0.7415,-0.7382,-0.7335,-0.7298,-0.726,-0.7235,-0.72,-0.7164,-0.7115,-0.708,-0.7043,-0.6993,-0.6943,-0.6904,-0.6888,-0.6873,-0.6888,-0.6867,-0.6831,-0.6824,-0.6817,-0.6822,-0.6886,-0.6886,-0.6909,-0.6909,-0.6909]},{"header":{"parameterUnit":"m.s-1","parameterCategory":1,"la1":30.2991,"la2":30.254,"lo1":-89.0895,"lo2":-89.0444,"dy":0.0017,"dx":0.0017,"nx":28,"ny":28,"refTime":"2024-11-23T03:00:00:Z","depth":0,"parameterNumber":3,"parameterNumberName":"V-component_of_WINDS"},"data":[0,0,0,0,0,0,0,0,0,0,0,0,0,0,0,0,0,0,0,0,0,0,0,0,0,0,0,0,0,0,0,0,0,0,0,0,0,0,0,0,0,0,0,0,0,0,0,0,0,0,0,0,0,0,0,0,0,0,2.5631,2.5631,0,2.563,2.563,2.563,2.5624,2.5624,2.5624,2.5624,2.5621,2.5621,2.5621,0,0,0,0,0,0,0,0,0,0,0,0,0,2.5625,2.5625,2.5631,2.5631,2.5631,2.563,2.563,2.563,2.5624,2.5624,2.5624,2.5624,2.5621,2.5621,2.5621,0,0,0,0,0,0,0,0,0,0,0,0,0,2.5626,2.5625,2.5631,2.5628,2.5627,2.563,2.563,2.563,2.5624,2.5624,2.5624,2.5624,2.5621,2.5621,2.5621,2.5626,0,0,2.5622,2.5622,0,0,0,0,0,0,0,0,2.5626,2.5627,2.5628,2.5628,2.5628,2.5627,2.5627,2.5629,2.5624,2.5625,2.5624,2.5623,2.5623,2.5623,2.5623,2.5626,2.5626,2.5622,2.5622,2.5622,2.5622,0,0,0,0,0,0,0,2.5626,2.5627,2.5631,2.5628,2.5628,2.5626,2.5626,2.5628,2.5625,2.5625,2.5625,2.5625,2.5623,2.5623,2.5623,2.5626,2.5622,2.5622,2.5622,2.5622,2.5634,2.5634,0,0,0,0,0,0,2.5627,2.5627,2.5631,2.5631,2.5627,2.5626,2.5626,2.5627,2.5625,2.5625,2.5625,2.5625,2.5623,2.5623,2.5623,2.563,2.5622,2.5622,2.5622,2.5634,2.5634,2.5634,0,0,0,0,0,0,2.5627,2.5627,2.5631,2.5628,2.5629,2.5627,2.5628,2.5628,2.5628,2.5625,2.5625,2.5626,2.5623,2.5623,2.5626,2.5629,2.5622,2.5622,2.5634,2.5634,2.5634,2.5642,0,0,0,0,0,0,2.5627,2.5627,2.5629,2.5629,2.5629,2.5634,2.5628,2.5628,2.5628,2.5628,2.5626,2.5626,2.5623,2.5626,2.5626,2.5629,2.5622,2.5633,2.5634,2.5634,2.5642,2.5643,2.5644,0,0,0,0,0,2.5626,2.5631,2.563,2.563,2.5632,2.5634,2.5634,2.5632,2.5629,2.5631,2.5629,2.5626,2.5629,2.5626,2.5626,2.563,2.5633,2.5634,2.5634,2.5641,2.5643,2.5644,0,0,0,0,0,0,2.5631,2.5631,2.5629,2.5634,2.5634,2.5633,2.5635,2.5633,2.5634,2.5633,2.5629,2.5629,2.5633,2.5631,2.5628,2.5635,2.563,2.5631,2.5636,2.5637,2.5638,2.5638,2.5622,0,0,0,0,0,2.5633,2.5636,2.5635,2.5639,2.5639,2.5637,2.5638,2.5636,2.5636,2.5636,2.5635,2.5634,2.5636,2.5636,2.5637,2.5642,2.5641,2.5644,2.5645,2.5646,2.5647,2.565,2.5651,2.5636,2.5636,2.5636,0,0,2.5636,2.5636,2.5638,2.564,2.564,2.5642,2.5637,2.564,2.5642,2.5636,2.5639,2.5638,2.5638,2.5642,2.5643,2.5641,2.5651,2.5647,2.5648,2.5648,2.565,2.5652,2.5653,2.5637,2.5637,2.5637,0,0,2.5644,2.5644,2.5648,2.5648,2.5649,2.5648,2.5649,2.5648,2.5648,2.5651,2.5647,2.5649,2.5651,2.5651,2.5651,2.566,2.5656,2.566,2.5666,2.5669,2.567,2.5671,2.5674,2.5676,2.5661,2.5661,2.5661,0,2.5647,2.5652,2.565,2.5653,2.5654,2.5651,2.5654,2.5655,2.5655,2.5656,2.5653,2.5656,2.5655,2.566,2.5662,2.5662,2.5663,2.566,2.567,2.5671,2.5672,2.5675,2.5676,2.5661,2.5661,2.5661,2.5661,0,2.5656,2.5659,2.5662,2.5664,2.5666,2.5669,2.5668,2.5669,2.5667,2.5667,2.567,2.5669,2.567,2.5671,2.5669,2.5675,2.5674,2.5671,2.5666,2.5674,2.5677,2.5678,2.5662,2.5661,2.5661,2.5661,0,0,2.5666,2.5668,2.5669,2.567,2.5671,2.5673,2.5677,2.5678,2.568,2.5681,2.5683,2.5686,2.5683,2.5683,2.5681,2.5684,2.5691,2.568,2.568,2.5683,2.5699,2.5702,2.5703,2.5689,2.569,2.569,2.5699,0,2.5674,2.568,2.5679,2.5686,2.5689,2.5686,2.5689,2.5689,2.5689,2.5691,2.569,2.5692,2.5688,2.5689,2.5691,2.569,2.5695,2.5689,2.5692,2.5692,2.5692,2.5705,2.5707,2.5716,2.57,2.5701,2.5701,0,2.5683,2.5685,2.5692,2.5694,2.5695,2.5698,2.57,2.5702,2.5703,2.5702,2.5703,2.5701,2.5704,2.57,2.5704,2.5701,2.5702,2.5702,2.5702,2.5702,2.5697,2.5705,2.5719,2.572,2.5702,2.5702,2.5702,0,2.569,2.5695,2.57,2.5701,2.5702,2.5705,2.5705,2.5706,2.5708,2.5709,2.571,2.5712,2.5713,2.5714,2.5712,2.5709,2.5717,2.5712,2.5717,2.5717,2.5719,2.5719,2.5733,2.5719,2.5719,2.5719,2.5719,0,2.5698,2.5703,2.5703,2.5706,2.5711,2.571,2.5715,2.5715,2.5716,2.5719,2.5716,2.5719,2.5716,2.5719,2.5717,2.5722,2.5722,2.5721,2.5721,2.5722,2.5722,2.5723,2.5722,2.5719,2.5719,2.5719,2.5719,0,2.5707,2.5707,2.5713,2.5714,2.5715,2.5718,2.572,2.5722,2.5722,2.5726,2.5727,2.5726,2.5729,2.5728,2.573,2.5729,2.5735,2.5733,2.5735,2.5735,2.574,2.5739,2.5755,2.5757,2.5741,2.5742,2.5742,0,2.5712,2.5716,2.5718,2.5721,2.5722,2.5725,2.5727,2.5727,2.5729,2.5731,2.5733,2.5736,2.5738,2.5743,2.5742,2.5745,2.5743,2.5749,2.5743,2.5745,2.5744,2.5744,2.5744,2.5749,2.575,2.575,2.575,0,2.5722,2.5723,2.5726,2.573,2.5732,2.5735,2.5737,2.5739,2.5738,2.5741,2.5744,2.5746,2.575,2.5752,2.5754,2.5755,2.5752,2.5752,2.5753,2.5754,2.5755,2.5755,2.5738,2.5751,2.5751,2.5751,2.5751,2.5751,2.5729,2.5733,2.5736,2.574,2.5742,2.5744,2.5747,2.5748,2.5751,2.5755,2.5754,2.5758,2.5759,2.5762,2.5763,2.5766,2.5764,2.5765,2.5766,2.5766,2.5767,2.5754,2.5766,2.5766,2.5766,2.5766,2.5766,0,2.574,2.5742,2.5746,2.575,2.5753,2.5751,2.5754,2.5757,2.5761,2.5763,2.5766,2.577,2.5773,2.5773,2.5776,2.5778,2.5777,2.5779,2.5779,2.5779,2.5769,2.5768,2.578,2.578,2.578,2.578,2.578,2.578,2.5745,2.5751,2.5752,2.5759,2.5761,2.5766,2.5768,2.577,2.5772,2.5777,2.578,2.5781,2.5782,2.5785,2.5788,2.5788,2.5789,2.5792,2.5791,2.5781,2.578,2.5779,2.5777,2.5792,2.5792,2.5802,2.5802,2.5802]}]]